Location: Newark
(45.8667°N, 9.7333°E)
Time: 03:01:50
(UTC+00:00)

Transit 4A - Pass Details

Date: 26 January 2020
Orbit: 872 x 973 km, 66.8° (Epoch: 16 February)

Event Time Altitude Azimuth Distance (km) Brightness Sun altitude
Rises 08:01:10 0° 268° (W) 3,523 10.5 9.5°
Reaches altitude 10° 08:04:34 10° 287° (WNW) 2,567 9.7 9.9°
Maximum altitude 08:08:30 18° 329° (NNW) 2,044 9.2 10.4°
Drops below altitude 10° 08:12:25 10° 11° (N) 2,542 9.9 10.9°
Sets 08:15:47 0° 30° (NNE) 3,475 10.8 11.4°
